Hourly Data Report for October 08, 2013

All times are specified in Local Standard Time (LST). Add 1 hour to adjust for Daylight Saving Time where and when it is observed.

HALL BEACH A
NUNAVUT

68°46'33.000" N
81°14'33.000" W
9.10 m
2402354
71293
YUX

Download Data

Hourly Data (October 2013)
Hourly Data Report for October 8, 2013
Temp Definition
°C
Dew Point Temp Definition
°C
Rel Hum Definition
%
Wind Dir Definition
10's deg

Wind Spd Definition
km/h
Visibility Definition
km
Stn Press Definition
kPa
Hmdx Definition


Wind Chill Definition


Weather Definition


TIME
00:00 Legend Double Dagger -4.6 -8.0 77 4 28 16.1 101.62   -12 LegendNANA
01:00 Legend Double Dagger -5.3 -8.6 78 4 32 16.1 101.61   -14 LegendNANA
02:00 Legend Double Dagger -5.9 -9.3 77 3 32 16.1 101.54   -14 LegendNANA
03:00 Legend Double Dagger -6.4 -9.6 78 36 32 16.1 101.48   -15 LegendNANA
04:00 Legend Double Dagger -6.6 -9.7 79 1 37 16.1 101.45   -16 LegendNANA
05:00 Legend Double Dagger -6.8 -9.9 79 1 37 16.1 101.40   -16 LegendNANA
06:00 Legend Double Dagger -6.9 -10.1 78 2 42 16.1 101.35   -17 LegendNANA
07:00 Legend Double Dagger -6.8 -10.0 78 2 41 16.1 101.30   -17 LegendNANA
08:00 Legend Double Dagger -7.0 -9.9 80 1 37 16.1 101.25   -16 LegendNANA
09:00 Legend Double Dagger -6.9 -9.8 80 1 35 16.1 101.19   -16 LegendNANA
10:00 Legend Double Dagger -6.5 -9.5 80 3 32 16.1 101.15   -15 LegendNANA
11:00 Legend Double Dagger -5.9 -9.0 79 4 30 16.1 101.11   -14 LegendNANA
12:00 Legend Double Dagger -5.4 -8.6 79 3 24 16.1 101.06   -13 LegendNANA
13:00 Legend Double Dagger -5.1 -8.6 77 3 30 16.1 101.01   -13 LegendNANA
14:00 Legend Double Dagger -4.7 -8.7 74 2 30 16.1 100.97   -13 LegendNANA
15:00 Legend Double Dagger -4.2 -9.2 69 3 33 16.1 100.95   -12 LegendNANA
16:00 Legend Double Dagger -4.2 -8.3 74 2 33 16.1 100.94   -12 LegendNANA
17:00 Legend Double Dagger -4.3 -7.9 76 3 26 16.1 100.93   -12 LegendNANA
18:00 Legend Double Dagger -4.2 -7.5 78 3 30 16.1 100.92   -12 LegendNANA
19:00 Legend Double Dagger -3.8 -6.6 81 3 30 16.1 100.91   -11 LegendNANA
20:00 Legend Double Dagger -3.6 -7.4 75 4 35 16.1 100.89   -12 LegendNANA
21:00 Legend Double Dagger -4.0 -7.1 79 3 41 16.1 100.88   -13 LegendNANA
22:00 Legend Double Dagger -3.7 -7.6 74 3 45 16.1 100.87   -13 LegendNANA
23:00 Legend Double Dagger -3.5 -7.3 75 3 46 16.1 100.85   -13 LegendNANA

Notes on Data Quality.

Legend

  • E = Estimated
  • M = Missing
  • NA = Not Available
  • ‡ = Partner data that is not subject to review by the National Climate Archives
Date modified: